Time,TemperatureF,DewpointF,PressureIn,WindDirection,WindDirectionDegrees,WindSpeedMPH,WindSpeedGustMPH,Humidity,HourlyPrecipIn,Conditions,Clouds,dailyrainin,SoftwareType,DateUTC
2013-01-30 00:02:00,31.0,29.0,29.52,NNW,334,7.0,16.0,91,0.00,,,0.03,,2013-01-30 06:02:00,
2013-01-30 00:11:00,31.0,29.0,29.52,NNW,334,7.0,16.0,91,0.00,,,0.03,,2013-01-30 06:11:00,
2013-01-30 00:21:00,31.0,29.0,29.52,NW,313,7.0,17.0,91,0.00,,,0.04,,2013-01-30 06:21:00,
2013-01-30 00:32:00,31.0,29.0,29.54,NW,308,7.0,17.0,92,0.06,,,0.05,,2013-01-30 06:32:00,
2013-01-30 00:42:00,31.0,29.0,29.54,NW,308,7.0,17.0,92,0.06,,,0.05,,2013-01-30 06:42:00,
2013-01-30 00:51:00,30.0,28.0,29.57,NNW,333,6.0,16.0,93,0.00,,,0.05,,2013-01-30 06:51:00,
2013-01-30 01:02:00,30.0,28.0,29.57,NNW,333,6.0,16.0,93,0.00,,,0.05,,2013-01-30 07:02:00,
2013-01-30 01:11:00,30.0,28.0,29.57,NNW,333,6.0,16.0,93,0.00,,,0.05,,2013-01-30 07:11:00,
2013-01-30 01:21:00,30.0,28.0,29.57,North,350,8.0,16.0,93,0.00,,,0.06,,2013-01-30 07:21:00,
2013-01-30 01:32:00,29.0,27.0,29.56,NNW,340,9.0,19.0,93,0.00,,,0.06,,2013-01-30 07:32:00,
2013-01-30 01:42:00,29.0,27.0,29.56,NNW,340,9.0,19.0,93,0.00,,,0.06,,2013-01-30 07:42:00,
2013-01-30 01:52:00,29.0,27.0,29.56,NNW,340,9.0,19.0,93,0.00,,,0.06,,2013-01-30 07:52:00,
2013-01-30 02:01:00,28.0,27.0,29.56,NNW,348,9.0,23.0,94,0.00,,,0.06,,2013-01-30 08:01:00,
2013-01-30 02:11:00,28.0,27.0,29.56,NNW,348,9.0,23.0,94,0.00,,,0.06,,2013-01-30 08:11:00,
2013-01-30 02:21:00,27.0,26.0,29.57,NW,320,9.0,18.0,94,0.00,,,0.08,,2013-01-30 08:21:00,
2013-01-30 02:32:00,27.0,26.0,29.59,NNW,334,10.0,22.0,95,0.00,,,0.08,,2013-01-30 08:32:00,
2013-01-30 02:42:00,27.0,26.0,29.59,NNW,334,10.0,22.0,95,0.00,,,0.08,,2013-01-30 08:42:00,
2013-01-30 02:52:00,26.0,25.0,29.59,NNW,335,7.0,18.0,95,0.00,,,0.08,,2013-01-30 08:52:00,
2013-01-30 03:01:00,26.0,25.0,29.61,NNW,333,9.0,20.0,95,0.00,,,0.09,,2013-01-30 09:01:00,
2013-01-30 03:11:00,26.0,25.0,29.61,NNW,333,9.0,20.0,95,0.00,,,0.09,,2013-01-30 09:11:00,
2013-01-30 03:21:00,26.0,25.0,29.61,NW,311,8.0,20.0,95,0.00,,,0.09,,2013-01-30 09:21:00,
2013-01-30 03:32:00,25.0,24.0,29.62,NW,315,6.0,22.0,95,0.00,,,0.09,,2013-01-30 09:32:00,
2013-01-30 03:42:00,25.0,24.0,29.62,NW,315,6.0,22.0,95,0.00,,,0.09,,2013-01-30 09:42:00,
2013-01-30 03:51:00,25.0,24.0,29.62,NNW,336,6.0,19.0,95,0.00,,,0.10,,2013-01-30 09:51:00,
2013-01-30 04:01:00,25.0,24.0,29.63,NW,315,6.0,19.0,95,0.00,,,0.10,,2013-01-30 10:01:00,
2013-01-30 04:11:00,25.0,24.0,29.63,NW,315,6.0,19.0,95,0.00,,,0.10,,2013-01-30 10:11:00,
2013-01-30 04:21:00,25.0,24.0,29.63,NW,315,6.0,19.0,95,0.00,,,0.10,,2013-01-30 10:21:00,
2013-01-30 04:32:00,25.0,24.0,29.62,NW,321,3.0,11.0,95,0.05,,,0.12,,2013-01-30 10:32:00,
2013-01-30 04:42:00,25.0,24.0,29.62,NW,321,3.0,11.0,95,0.05,,,0.12,,2013-01-30 10:42:00,
2013-01-30 04:52:00,24.0,23.0,29.63,NNW,344,10.0,20.0,94,0.04,,,0.14,,2013-01-30 10:52:00,
2013-01-30 05:02:00,24.0,23.0,29.63,NNW,344,10.0,20.0,94,0.04,,,0.14,,2013-01-30 11:02:00,
2013-01-30 05:11:00,24.0,23.0,29.63,NNW,344,10.0,20.0,94,0.04,,,0.14,,2013-01-30 11:11:00,
2013-01-30 05:22:00,23.0,22.0,29.64,NW,315,9.0,19.0,94,0.00,,,0.15,,2013-01-30 11:22:00,
2013-01-30 05:32:00,23.0,22.0,29.64,NW,315,9.0,19.0,94,0.00,,,0.15,,2013-01-30 11:32:00,
2013-01-30 05:42:00,23.0,22.0,29.64,NW,315,9.0,19.0,94,0.00,,,0.15,,2013-01-30 11:42:00,
2013-01-30 05:52:00,23.0,22.0,29.65,NW,317,5.0,18.0,94,0.00,,,0.16,,2013-01-30 11:52:00,
2013-01-30 06:02:00,23.0,22.0,29.65,NW,309,6.0,13.0,94,0.00,,,0.16,,2013-01-30 12:02:00,
2013-01-30 06:12:00,23.0,22.0,29.65,NW,309,6.0,13.0,94,0.00,,,0.16,,2013-01-30 12:12:00,
2013-01-30 06:22:00,23.0,22.0,29.65,NW,309,6.0,13.0,94,0.00,,,0.16,,2013-01-30 12:22:00,
2013-01-30 06:32:00,22.0,20.0,29.66,NW,319,11.0,24.0,93,0.00,,,0.17,,2013-01-30 12:32:00,
2013-01-30 06:42:00,22.0,20.0,29.66,NW,319,11.0,24.0,93,0.00,,,0.17,,2013-01-30 12:42:00,
2013-01-30 07:03:00,22.0,20.0,29.66,WNW,298,5.0,18.0,91,0.00,,,0.17,,2013-01-30 13:03:00,
2013-01-30 07:12:00,22.0,20.0,29.66,WNW,298,5.0,18.0,91,0.00,,,0.17,,2013-01-30 13:12:00,
2013-01-30 07:23:00,22.0,20.0,29.66,WNW,298,5.0,18.0,91,0.00,,,0.17,,2013-01-30 13:23:00,
2013-01-30 07:33:00,22.0,20.0,29.66,WNW,298,5.0,18.0,91,0.00,,,0.17,,2013-01-30 13:33:00,
2013-01-30 07:42:00,22.0,20.0,29.66,WNW,298,5.0,18.0,91,0.00,,,0.17,,2013-01-30 13:42:00,
2013-01-30 07:53:00,22.0,20.0,29.68,NW,325,8.0,19.0,90,0.00,,,0.18,,2013-01-30 13:53:00,
2013-01-30 08:02:00,22.0,19.0,29.68,WNW,295,5.0,19.0,89,0.00,,,0.18,,2013-01-30 14:02:00,
2013-01-30 08:12:00,22.0,19.0,29.68,WNW,295,5.0,19.0,89,0.00,,,0.18,,2013-01-30 14:12:00,
2013-01-30 08:22:00,22.0,19.0,29.70,NW,319,5.0,16.0,89,0.00,,,0.18,,2013-01-30 14:22:00,
2013-01-30 08:33:00,22.0,19.0,29.70,NW,319,5.0,16.0,89,0.00,,,0.18,,2013-01-30 14:33:00,
2013-01-30 08:42:00,22.0,19.0,29.70,NW,319,5.0,16.0,89,0.00,,,0.18,,2013-01-30 14:42:00,
2013-01-30 08:53:00,22.0,19.0,29.71,WSW,241,6.0,20.0,88,0.00,,,0.18,,2013-01-30 14:53:00,
2013-01-30 09:03:00,22.0,19.0,29.71,WSW,241,6.0,20.0,88,0.00,,,0.18,,2013-01-30 15:03:00,
2013-01-30 09:12:00,22.0,19.0,29.71,WSW,241,6.0,20.0,88,0.00,,,0.18,,2013-01-30 15:12:00,
2013-01-30 09:23:00,22.0,19.0,29.72,SW,230,5.0,17.0,88,0.00,,,0.18,,2013-01-30 15:23:00,
2013-01-30 09:33:00,22.0,19.0,29.72,NW,325,6.0,17.0,88,0.00,,,0.18,,2013-01-30 15:33:00,
2013-01-30 09:43:00,22.0,19.0,29.72,NW,325,6.0,17.0,88,0.00,,,0.18,,2013-01-30 15:43:00,
2013-01-30 09:53:00,22.0,18.0,29.73,West,273,5.0,18.0,86,0.00,,,0.18,,2013-01-30 15:53:00,
2013-01-30 10:03:00,22.0,18.0,29.73,West,273,5.0,18.0,86,0.00,,,0.18,,2013-01-30 16:03:00,
2013-01-30 10:12:00,22.0,18.0,29.73,West,273,5.0,18.0,86,0.00,,,0.18,,2013-01-30 16:12:00,
2013-01-30 10:23:00,22.0,18.0,29.73,West,273,5.0,18.0,86,0.00,,,0.18,,2013-01-30 16:23:00,
2013-01-30 10:32:00,22.0,17.0,29.75,WNW,292,4.0,15.0,82,0.00,,,0.18,,2013-01-30 16:32:00,
2013-01-30 10:42:00,22.0,17.0,29.75,WNW,292,4.0,15.0,82,0.00,,,0.18,,2013-01-30 16:42:00,
2013-01-30 10:52:00,22.0,17.0,29.75,WNW,292,4.0,15.0,82,0.00,,,0.18,,2013-01-30 16:52:00,
2013-01-30 11:02:00,22.0,17.0,29.75,WNW,292,4.0,15.0,82,0.00,,,0.18,,2013-01-30 17:02:00,
2013-01-30 11:12:00,22.0,17.0,29.75,WNW,292,4.0,15.0,82,0.00,,,0.18,,2013-01-30 17:12:00,
2013-01-30 11:23:00,23.0,17.0,29.75,NW,307,5.0,15.0,79,0.00,,,0.18,,2013-01-30 17:23:00,
2013-01-30 11:33:00,23.0,17.0,29.75,NW,312,4.0,13.0,78,0.00,,,0.18,,2013-01-30 17:33:00,
2013-01-30 11:43:00,23.0,17.0,29.75,NW,312,4.0,13.0,78,0.00,,,0.18,,2013-01-30 17:43:00,
2013-01-30 11:53:00,23.0,17.0,29.75,NW,312,4.0,13.0,78,0.00,,,0.18,,2013-01-30 17:53:00,
2013-01-30 12:02:00,23.0,17.0,29.76,WSW,257,5.0,16.0,77,0.00,,,0.18,,2013-01-30 18:02:00,
2013-01-30 12:12:00,23.0,17.0,29.76,WSW,257,5.0,16.0,77,0.00,,,0.18,,2013-01-30 18:12:00,
2013-01-30 12:23:00,24.0,17.0,29.75,West,261,4.0,15.0,74,0.00,,,0.18,,2013-01-30 18:23:00,
2013-01-30 12:33:00,24.0,17.0,29.76,WNW,302,5.0,14.0,73,0.00,,,0.18,,2013-01-30 18:33:00,
2013-01-30 12:42:00,24.0,17.0,29.76,WNW,302,5.0,14.0,73,0.00,,,0.18,,2013-01-30 18:42:00,
2013-01-30 12:52:00,23.0,16.0,29.76,NW,323,4.0,12.0,74,0.00,,,0.18,,2013-01-30 18:52:00,
2013-01-30 13:03:00,24.0,17.0,29.76,WNW,286,5.0,16.0,73,0.00,,,0.18,,2013-01-30 19:03:00,
2013-01-30 13:12:00,24.0,17.0,29.76,WNW,286,5.0,16.0,73,0.00,,,0.18,,2013-01-30 19:12:00,
2013-01-30 13:22:00,24.0,16.0,29.76,NW,313,6.0,20.0,72,0.00,,,0.18,,2013-01-30 19:22:00,
2013-01-30 13:32:00,24.0,16.0,29.76,North,355,7.0,14.0,71,0.00,,,0.18,,2013-01-30 19:32:00,
2013-01-30 13:43:00,24.0,16.0,29.76,North,355,7.0,14.0,71,0.00,,,0.18,,2013-01-30 19:43:00,
2013-01-30 13:52:00,24.0,16.0,29.76,North,355,7.0,14.0,71,0.00,,,0.18,,2013-01-30 19:52:00,
2013-01-30 14:03:00,25.0,16.0,29.76,WSW,252,4.0,17.0,68,0.00,,,0.18,,2013-01-30 20:03:00,
2013-01-30 14:12:00,25.0,16.0,29.76,WSW,252,4.0,17.0,68,0.00,,,0.18,,2013-01-30 20:12:00,
2013-01-30 14:22:00,24.0,14.0,29.75,West,266,5.0,16.0,66,0.00,,,0.18,,2013-01-30 20:22:00,
2013-01-30 14:33:00,24.0,14.0,29.75,West,266,5.0,16.0,66,0.00,,,0.18,,2013-01-30 20:33:00,
2013-01-30 14:42:00,24.0,14.0,29.75,West,266,5.0,16.0,66,0.00,,,0.18,,2013-01-30 20:42:00,
2013-01-30 14:53:00,25.0,15.0,29.75,NW,308,4.0,14.0,65,0.00,,,0.18,,2013-01-30 20:53:00,
2013-01-30 15:03:00,25.0,15.0,29.75,NW,308,4.0,14.0,65,0.00,,,0.18,,2013-01-30 21:03:00,
2013-01-30 15:12:00,25.0,15.0,29.75,NW,308,4.0,14.0,65,0.00,,,0.18,,2013-01-30 21:12:00,
2013-01-30 15:23:00,25.0,14.0,29.76,NW,315,3.0,14.0,63,0.00,,,0.18,,2013-01-30 21:23:00,
2013-01-30 15:32:00,24.0,13.0,29.76,WSW,246,4.0,15.0,62,0.00,,,0.18,,2013-01-30 21:32:00,
2013-01-30 15:43:00,24.0,13.0,29.76,WSW,246,4.0,15.0,62,0.00,,,0.18,,2013-01-30 21:43:00,
2013-01-30 15:53:00,24.0,13.0,29.76,NNW,329,5.0,15.0,63,0.00,,,0.18,,2013-01-30 21:53:00,
2013-01-30 16:02:00,23.0,13.0,29.78,WNW,302,5.0,11.0,64,0.00,,,0.18,,2013-01-30 22:02:00,
2013-01-30 16:12:00,23.0,13.0,29.78,WNW,302,5.0,11.0,64,0.00,,,0.18,,2013-01-30 22:12:00,
2013-01-30 16:22:00,24.0,14.0,29.78,NW,323,3.0,11.0,64,0.00,,,0.18,,2013-01-30 22:22:00,
2013-01-30 16:32:00,24.0,14.0,29.78,NW,323,3.0,11.0,64,0.00,,,0.18,,2013-01-30 22:32:00,
2013-01-30 16:42:00,24.0,14.0,29.78,NW,323,3.0,11.0,64,0.00,,,0.18,,2013-01-30 22:42:00,
2013-01-30 16:53:00,24.0,14.0,29.79,NW,304,2.0,13.0,64,0.00,,,0.18,,2013-01-30 22:53:00,
2013-01-30 17:02:00,23.0,13.0,29.80,WSW,240,2.0,10.0,65,0.00,,,0.18,,2013-01-30 23:02:00,
2013-01-30 17:12:00,23.0,13.0,29.80,WSW,240,2.0,10.0,65,0.00,,,0.18,,2013-01-30 23:12:00,
2013-01-30 17:22:00,23.0,12.0,29.80,NW,316,2.0,9.0,63,0.00,,,0.18,,2013-01-30 23:22:00,
2013-01-30 17:32:00,23.0,13.0,29.81,West,270,2.0,8.0,65,0.00,,,0.18,,2013-01-30 23:32:00,
2013-01-30 17:42:00,23.0,13.0,29.81,West,270,2.0,8.0,65,0.00,,,0.18,,2013-01-30 23:42:00,
2013-01-30 17:52:00,23.0,13.0,29.81,WNW,291,2.0,8.0,65,0.00,,,0.18,,2013-01-30 23:52:00,
2013-01-30 18:02:00,23.0,14.0,29.81,WSW,253,0.0,5.0,68,0.00,,,0.18,,2013-01-31 00:02:00,
2013-01-30 18:11:00,23.0,14.0,29.81,WSW,253,0.0,5.0,68,0.00,,,0.18,,2013-01-31 00:11:00,
2013-01-30 18:22:00,22.0,13.0,29.81,WSW,257,0.0,4.0,68,0.00,,,0.18,,2013-01-31 00:22:00,
2013-01-30 18:32:00,22.0,13.0,29.82,West,277,0.0,7.0,68,0.00,,,0.18,,2013-01-31 00:32:00,
2013-01-30 18:42:00,22.0,13.0,29.82,West,277,0.0,7.0,68,0.00,,,0.18,,2013-01-31 00:42:00,
2013-01-30 18:52:00,22.0,13.0,29.82,West,277,0.0,7.0,68,0.00,,,0.18,,2013-01-31 00:52:00,
2013-01-30 19:02:00,22.0,13.0,29.82,West,277,0.0,7.0,68,0.00,,,0.18,,2013-01-31 01:02:00,
2013-01-30 19:11:00,22.0,13.0,29.82,West,277,0.0,7.0,68,0.00,,,0.18,,2013-01-31 01:11:00,
2013-01-30 19:22:00,22.0,13.0,29.82,West,275,0.0,1.0,69,0.00,,,0.18,,2013-01-31 01:22:00,
2013-01-30 19:32:00,22.0,13.0,29.82,West,275,0.0,1.0,69,0.00,,,0.18,,2013-01-31 01:32:00,
2013-01-30 19:42:00,22.0,13.0,29.82,West,275,0.0,1.0,69,0.00,,,0.18,,2013-01-31 01:42:00,
2013-01-30 19:52:00,21.0,12.0,29.83,West,274,0.0,2.0,68,0.00,,,0.18,,2013-01-31 01:52:00,
2013-01-30 20:01:00,21.0,12.0,29.83,West,274,0.0,2.0,68,0.00,,,0.18,,2013-01-31 02:01:00,
2013-01-30 20:12:00,21.0,12.0,29.83,West,274,0.0,2.0,68,0.00,,,0.18,,2013-01-31 02:12:00,
2013-01-30 20:21:00,21.0,13.0,29.84,WSW,255,0.0,1.0,70,0.00,,,0.18,,2013-01-31 02:21:00,
2013-01-30 20:32:00,20.0,12.0,29.84,WSW,255,0.0,1.0,70,0.00,,,0.18,,2013-01-31 02:32:00,
2013-01-30 20:42:00,20.0,12.0,29.84,WSW,255,0.0,1.0,70,0.00,,,0.18,,2013-01-31 02:42:00,
2013-01-30 20:52:00,20.0,12.0,29.84,WSW,255,0.0,1.0,70,0.00,,,0.18,,2013-01-31 02:52:00,
2013-01-30 21:03:00,18.0,11.0,29.85,NW,326,0.0,5.0,73,0.00,,,0.18,,2013-01-31 03:03:00,
2013-01-30 21:11:00,18.0,11.0,29.85,NW,326,0.0,5.0,73,0.00,,,0.18,,2013-01-31 03:11:00,
2013-01-30 21:21:00,18.0,11.0,29.85,NW,326,0.0,5.0,73,0.00,,,0.18,,2013-01-31 03:21:00,
2013-01-30 21:32:00,18.0,11.0,29.85,NW,325,0.0,5.0,74,0.00,,,0.18,,2013-01-31 03:32:00,
2013-01-30 21:41:00,18.0,11.0,29.85,NW,325,0.0,5.0,74,0.00,,,0.18,,2013-01-31 03:41:00,
2013-01-30 21:52:00,18.0,11.0,29.85,NNW,335,0.0,5.0,74,0.00,,,0.18,,2013-01-31 03:52:00,
2013-01-30 22:02:00,17.0,10.0,29.86,West,275,0.0,2.0,73,0.00,,,0.18,,2013-01-31 04:02:00,
2013-01-30 22:11:00,17.0,10.0,29.86,West,275,0.0,2.0,73,0.00,,,0.18,,2013-01-31 04:11:00,
2013-01-30 22:22:00,17.0,10.0,29.86,West,277,0.0,5.0,73,0.00,,,0.18,,2013-01-31 04:22:00,
2013-01-30 22:31:00,16.0,9.0,29.87,West,277,0.0,2.0,74,0.00,,,0.15,,2013-01-31 04:31:00,
2013-01-30 22:41:00,16.0,9.0,29.87,West,277,0.0,2.0,74,0.00,,,0.15,,2013-01-31 04:41:00,
2013-01-30 22:51:00,16.0,9.0,29.87,West,277,0.0,3.0,74,0.00,,,0.15,,2013-01-31 04:51:00,
2013-01-30 23:03:00,16.0,9.0,29.87,West,277,0.0,2.0,74,0.00,,,0.15,,2013-01-31 05:03:00,
2013-01-30 23:11:00,16.0,9.0,29.87,West,277,0.0,2.0,74,0.00,,,0.15,,2013-01-31 05:11:00,
2013-01-30 23:22:00,16.0,9.0,29.87,West,277,0.0,2.0,74,0.00,,,0.15,,2013-01-31 05:22:00,
2013-01-30 23:32:00,16.0,9.0,29.87,West,277,0.0,2.0,74,0.00,,,0.15,,2013-01-31 05:32:00,
2013-01-30 23:41:00,16.0,9.0,29.87,West,277,0.0,2.0,74,0.00,,,0.15,,2013-01-31 05:41:00,